Weather History for Monroe, MI

Change the Weather History Date:

Tuesday, May 13, 2014

  Actual Average Record
Temperature  
Mean Temperature 75 °F -  
Max Temperature 86 °F 68 °F 89 °F (1991)
Min Temperature 64 °F 48 °F 28 °F (2013)
Cooling Degree Days 10    
Growing Degree Days 25 (Base 50)    
Moisture  
Dew Point 65 °F    
Average Humidity 82    
Maximum Humidity 100    
Minimum Humidity 48    
Precipitation  
Precipitation 0.00 in - - ()
Sea Level Pressure  
Sea Level Pressure 29.95 in    
Wind  
Wind Speed 8 mph (SW)    
Max Wind Speed 24 mph    
Max Gust Speed 45 mph    
Visibility 9 miles    
Events Rain    
Averages and records for this station are not official NWS values.
T = Trace of Precipitation, MM = Missing Value Source: NWS Daily Summary

Daily Weather History Graph

Daily Weather History Graph

Search for Another Location

Airport:

Trip Planner

Search our weather history database for the weather conditions in past years. The results will help you decide how hot, cold, wet, or windy it might be!

Date:

Astronomy

May. 13, 2014 Rise Set
Actual Time 6:15 AM EDT 8:45 PM EDT
Civil Twilight 5:43 AM EDT 9:17 PM EDT
Nautical Twilight 5:04 AM EDT 9:56 PM EDT
Astronomical Twilight 4:20 AM EDT 10:41 PM EDT
Moon 7:44 PM EDT (5/13) 5:32 AM EDT (5/13)
Length of Visible Light 15h 33m
Length of Day
14h 29m
Waxing Gibbous, 98% of the Moon is Illuminated
May 13
Waxing Gibbous
May 14
Full
May 21
Last Quarter
May 28
New
Jun 5
First Quarter

Hourly Weather History & Observations

Time (EDT) Temp. Heat Index Dew Point Humidity Pressure Visibility Wind Dir Wind Speed Gust Speed Precip Events Conditions
12:13 AM 64.4 °F - 64.4 °F 100% 29.97 in 10.0 mi South 6.9 mph - N/A   Scattered Clouds
12:34 AM 66.2 °F - 64.4 °F 94% 29.97 in 10.0 mi South 6.9 mph - N/A   Clear
12:54 AM 66.2 °F - 64.4 °F 94% 29.97 in 7.0 mi South 6.9 mph - N/A   Clear
1:14 AM 66.2 °F - 64.4 °F 94% 29.97 in 7.0 mi South 6.9 mph - N/A   Clear
1:34 AM 66.2 °F - 64.4 °F 94% 29.96 in 7.0 mi South 5.8 mph - N/A   Clear
2:14 AM 69.8 °F - 66.2 °F 88% 29.95 in 10.0 mi SW 8.1 mph - N/A   Clear
2:34 AM 69.8 °F - 66.2 °F 88% 29.95 in 10.0 mi SW 5.8 mph - N/A   Clear
2:54 AM 69.8 °F - 66.2 °F 88% 29.95 in 10.0 mi SSW 5.8 mph - N/A   Clear
3:14 AM 69.8 °F - 64.4 °F 83% 29.94 in 10.0 mi SSW 5.8 mph - N/A   Clear
3:35 AM 68.0 °F - 64.4 °F 88% 29.93 in 10.0 mi South 5.8 mph - N/A   Clear
3:55 AM 68.0 °F - 64.4 °F 88% 29.93 in 10.0 mi South 5.8 mph - N/A   Clear
4:15 AM 68.0 °F - 64.4 °F 88% 29.92 in 10.0 mi South 5.8 mph - N/A   Clear
4:35 AM 68.0 °F - 64.4 °F 88% 29.92 in 10.0 mi South 4.6 mph - N/A   Clear
4:55 AM 66.2 °F - 64.4 °F 94% 29.93 in 10.0 mi South 4.6 mph - N/A   Clear
5:15 AM 66.2 °F - 64.4 °F 94% 29.93 in 10.0 mi South 3.5 mph - N/A   Clear
5:35 AM 66.2 °F - 64.4 °F 94% 29.93 in 10.0 mi South 4.6 mph - N/A   Clear
5:55 AM 66.2 °F - 64.4 °F 94% 29.93 in 10.0 mi SSE 4.6 mph - N/A   Clear
6:15 AM 66.2 °F - 64.4 °F 94% 29.94 in 10.0 mi SSE 3.5 mph - N/A   Clear
6:36 AM 66.2 °F - 64.4 °F 94% 29.94 in 7.0 mi South 4.6 mph - N/A   Clear
6:56 AM 66.2 °F - 64.4 °F 94% 29.94 in 7.0 mi SSE 4.6 mph - N/A   Clear
7:16 AM 69.8 °F - 64.4 °F 83% 29.94 in 7.0 mi South 5.8 mph - N/A   Clear
7:36 AM 69.8 °F - 64.4 °F 83% 29.95 in 10.0 mi South 6.9 mph - N/A   Clear
7:56 AM 71.6 °F - 64.4 °F 78% 29.96 in 10.0 mi SSW 8.1 mph - N/A   Clear
8:16 AM 71.6 °F - 64.4 °F 78% 29.95 in 10.0 mi SSW 8.1 mph - N/A   Clear
9:11 AM 75.2 °F - 66.2 °F 73% 29.95 in 10.0 mi SSW 12.7 mph - N/A   Clear
9:31 AM 75.2 °F - 66.2 °F 73% 29.95 in 10.0 mi SW 13.8 mph - N/A   Clear
10:12 AM 78.8 °F - 68.0 °F 69% 29.95 in 10.0 mi SW 8.1 mph 16.1 mph N/A   Clear
10:52 AM 78.8 °F - 69.8 °F 74% 29.95 in 10.0 mi SW 11.5 mph 18.4 mph N/A   Clear
12:32 PM 82.4 °F 85.4 °F 68.0 °F 62% 29.94 in 10.0 mi SSW 9.2 mph - N/A   Scattered Clouds
12:53 PM 82.4 °F 85.4 °F 68.0 °F 62% 29.92 in 10.0 mi SW 10.4 mph - N/A   Scattered Clouds
1:33 PM 84.2 °F 87.3 °F 68.0 °F 58% 29.91 in 10.0 mi SSW 19.6 mph 24.2 mph N/A   Scattered Clouds
1:53 PM 84.2 °F 87.3 °F 68.0 °F 58% 29.91 in 10.0 mi SSW 16.1 mph 24.2 mph N/A   Scattered Clouds
2:13 PM 84.2 °F 86.6 °F 66.2 °F 55% 29.90 in 10.0 mi SSW 24.2 mph 27.6 mph N/A   Scattered Clouds
2:34 PM 86.0 °F 87.3 °F 64.4 °F 48% 29.89 in 10.0 mi SSW 23.0 mph 31.1 mph N/A   Scattered Clouds
2:54 PM 86.0 °F 87.3 °F 64.4 °F 48% 29.89 in 10.0 mi SSW 24.2 mph 33.4 mph N/A   Scattered Clouds
3:14 PM 84.2 °F 86.6 °F 66.2 °F 55% 29.89 in 10.0 mi SW 13.8 mph 20.7 mph N/A   Scattered Clouds
3:34 PM 78.8 °F - 66.2 °F 65% 29.92 in 10.0 mi West 20.7 mph 29.9 mph N/A   Mostly Cloudy
3:54 PM 69.8 °F - 64.4 °F 83% 29.97 in 3.0 mi WSW 23.0 mph 44.9 mph N/A Rain Heavy Rain
4:14 PM 69.8 °F - 66.2 °F 88% 29.97 in 5.0 mi West 16.1 mph - N/A Rain Heavy Rain
4:34 PM 69.8 °F - 66.2 °F 88% 29.95 in 7.0 mi West 8.1 mph 13.8 mph N/A Rain Light Rain
4:54 PM 71.6 °F - 66.2 °F 83% 29.95 in 10.0 mi West 9.2 mph - N/A   Scattered Clouds
5:15 PM 73.4 °F - 66.2 °F 78% 29.94 in 10.0 mi West 9.2 mph - N/A   Clear
5:35 PM 73.4 °F - 66.2 °F 78% 29.94 in 10.0 mi West 11.5 mph - N/A   Clear
5:55 PM 71.6 °F - 66.2 °F 83% 29.95 in 4.0 mi West 6.9 mph 28.8 mph N/A Rain Heavy Rain
6:15 PM 71.6 °F - 66.2 °F 83% 29.95 in 10.0 mi SW 5.8 mph - N/A Rain Light Rain
6:35 PM 69.8 °F - 66.2 °F 88% 29.95 in 10.0 mi South 3.5 mph - N/A Rain Light Rain
6:55 PM 71.6 °F - 68.0 °F 88% 29.94 in 10.0 mi Calm Calm - N/A   Clear
7:15 PM 71.6 °F - 69.8 °F 94% 29.95 in 10.0 mi SW 5.8 mph - N/A   Clear
7:35 PM 73.4 °F - 68.0 °F 83% 29.96 in 10.0 mi SW 9.2 mph - N/A   Clear
8:15 PM 71.6 °F - 68.0 °F 88% 29.97 in 10.0 mi SW 8.1 mph - N/A   Mostly Cloudy
8:36 PM 71.6 °F - 68.0 °F 88% 29.99 in 10.0 mi SSW 8.1 mph - N/A   Mostly Cloudy
9:16 PM 69.8 °F - 64.4 °F 83% 30.00 in 10.0 mi WNW 5.8 mph - N/A   Scattered Clouds
9:36 PM 68.0 °F - 64.4 °F 88% 30.02 in 10.0 mi West 5.8 mph - N/A   Clear
9:56 PM 68.0 °F - 64.4 °F 88% 30.02 in 10.0 mi West 4.6 mph - N/A   Scattered Clouds
10:16 PM 68.0 °F - 64.4 °F 88% 30.03 in 10.0 mi West 5.8 mph - N/A   Scattered Clouds
10:51 PM 68.0 °F - 62.6 °F 83% 30.03 in 10.0 mi WNW 6.9 mph - N/A   Mostly Cloudy
11:11 PM 66.2 °F - 62.6 °F 88% 30.03 in 10.0 mi West 6.9 mph - N/A   Clear
11:31 PM 66.2 °F - 62.6 °F 88% 30.03 in 10.0 mi West 8.1 mph - N/A   Mostly Cloudy
11:52 PM 66.2 °F - 62.6 °F 88% 30.03 in 10.0 mi West 6.9 mph - N/A   Overcast